Location: Multiple Mirror Telescope
(31.6889°N, 110.8853°W)
Time: 07:12:18
(UTC-07:00)

Envisat - Visible Passes

Search period start: 13 July 2025 00:00
Search period end: 23 July 2025 00:00
Orbit: 761 x 763 km, 98.3° (Epoch: 13 July)

Date Brightness Start Highest point End Pass type
(mag) Time Alt. Az. Time Alt. Az. Time Alt. Az.
13 Jul 2.9 03:16:55 10° N 03:21:59 77° WNW 03:23:07 54° SSW visible
14 Jul 3.8 02:39:30 10° NNE 02:44:17 42° E 02:44:55 40° ESE visible
14 Jul 4.6 04:19:31 10° NNW 04:22:50 18° WNW 04:25:03 14° W visible
15 Jul 5.1 02:03:13 10° NE 02:06:25 17° E 02:06:44 17° E visible
15 Jul 3.5 03:40:42 10° N 03:45:27 42° WNW 03:46:52 34° WSW visible
16 Jul 3.0 03:02:48 10° NNE 03:07:52 77° ESE 03:08:40 62° SSE visible
17 Jul 4.4 02:25:42 10° NE 02:30:07 30° E 02:30:29 29° ESE visible
17 Jul 4.3 04:04:49 10° NNW 04:08:50 24° WNW 04:10:37 20° W visible
18 Jul 5.5 01:50:32 10° ENE 01:52:10 11° E 01:52:17 11° E visible
18 Jul 3.1 03:26:24 10° N 03:31:23 60° WNW 03:32:25 49° WSW visible
19 Jul 3.4 02:48:47 10° NNE 02:53:44 54° E 02:54:13 51° ESE visible
19 Jul 4.9 04:29:35 10° NW 04:32:09 14° WNW 04:34:21 11° W visible
20 Jul 4.9 02:12:05 10° NE 02:15:54 21° E 02:16:01 21° E visible
20 Jul 3.8 03:50:18 10° N 03:54:49 34° WNW 03:56:09 29° WSW visible
21 Jul 2.8 03:12:13 10° N 03:17:17 85° WNW 03:17:57 68° SSW visible
22 Jul 4.0 02:34:53 10° NNE 02:39:34 38° E 02:39:45 37° ESE visible
22 Jul 4.5 04:14:37 10° NNW 04:18:11 20° WNW 04:19:53 17° W visible
